Regional Weather Roundup
Issued by NWS

Home | Current Version | Previous Version | Text Only | Print | Product List | Glossary Off
Versions: 1 2 3 4 5 6 7 8 9 10 11 12 13 14 15 16 17 18 19 20 21 22 23 24 25 26 27

000
ASUS45 KPSR 301710
RWRAZ

ARIZONA HOURLY REGIONAL WEATHER ROUNDUP
NATIONAL WEATHER SERVICE PHOENIX AZ
1000 AM MST FRI SEP 30 2016

NOTE: FAIR INDICATES FEW OR NO CLOUDS BELOW 12,000 FEET WITH NO
SIGNIFICANT WEATHER AND/OR OBSTRUCTIONS TO VISIBILITY.

AZZ001>003-036-301800-
NORTHWEST ARIZONA

CITY           SKY/WX    TMP DP  RH WIND       PRES   REMARKS
BULLHEAD CITY  SUNNY     82  48  30 CALM      30.05S
KINGMAN        PTSUNNY   79  52  38 SE13      30.20S
$$

AZZ004>008-015-016-018-301800-
NORTH CENTRAL ARIZONA

CITY           SKY/WX    TMP DP  RH WIND       PRES   REMARKS
GRAND CANYON   PTSUNNY   61  45  55 W7        30.40S
PRESCOTT       MOSUNNY   67  53  61 N9        30.32S
FLAGSTAFF      PTSUNNY   60  48  64 NW5       30.40F
PAYSON         SUNNY     70  54  56 VRB3      30.35S
PAGE           CLOUDY    67  56  67 CALM      30.29S
$$

AZZ009>014-017-301800-
NORTHEAST ARIZONA

CITY           SKY/WX    TMP DP  RH WIND       PRES   REMARKS
WINSLOW        CLOUDY    57  54  89 CALM      30.35S
SAINT JOHNS    SUNNY     61  54  77 NW3       30.35S
WINDOW ROCK    SUNNY     60  51  72 SE3       30.41F
SHOW LOW       SUNNY     64  46  52 SW8       30.39S
$$

AZZ023-301800-
GREATER PHOENIX AREA

CITY           SKY/WX    TMP DP  RH WIND       PRES   REMARKS
PHOENIX        MOSUNNY   86  58  38 E8        30.05F
BUCKEYE        SUNNY     86  55  35 E12G17    30.07S
GLENDALE       MOSUNNY   84  59  42 CALM      30.08S
LUKE AFB       SUNNY     86  58  38 E6        30.05F
DEER VALLEY    SUNNY     86  56  35 CALM      30.07F
SCOTTSDALE     SUNNY     85  56  37 CALM      30.09S
MESA-FALCON    MOSUNNY  N/A N/A N/A N12       30.05
MESA-GATEWAY   MOSUNNY   84  57  39 VRB5      30.09S
CHANDLER       MOSUNNY   84  59  42 CALM      30.07S
$$

AZZ027-028-301800-
SOUTHWEST MARICOPA COUNTY AND PINAL COUNTY

CITY           SKY/WX    TMP DP  RH WIND       PRES   REMARKS
CASA GRANDE    SUNNY     84  57  39 CALM      30.09S
GILA BEND      MOSUNNY   88  59  37 NE9       30.02S
$$

AZZ503-504-507>509-301800-
SOUTHEAST ARIZONA

CITY           SKY/WX    TMP DP  RH WIND       PRES   REMARKS
TUCSON         SUNNY     81  61  50 SE14      30.16R
DAVIS-MONTHAN  SUNNY     81  61  51 SE14      30.15R
RYAN FIELD     SUNNY     81  61  50 E6        30.14S
NOGALES        SUNNY     77  59  53 VRB5      30.22S
SIERRA VISTA   SUNNY     71  59  64 SE12      30.29S
DOUGLAS        MOSUNNY   71  59  65 CALM      30.27R
SAFFORD        PTSUNNY   74  60  61 E7        30.22S
$$

AZZ020-021-025-026-031-301800-
SOUTHWEST ARIZONA

CITY           SKY/WX    TMP DP  RH WIND       PRES   REMARKS
YUMA           MOSUNNY   92  53  26 NE3       29.99S
$$

CAZ031-033-041-043-047-048-061-301800-
SOUTHERN CALIFORNIA

CITY           SKY/WX    TMP DP  RH WIND       PRES   REMARKS
DOWNTOWN L.A.  SUNNY     80  60  50 CALM      30.03S
L.A. AIRPORT   MOSUNNY   76  63  64 W7        30.04S
SAN DIEGO      MOSUNNY   78  65  63 W6        30.05R
BURBANK        SUNNY     81  52  36 SE3       30.05S
ONTARIO        MOSUNNY   81  50  33 S5        30.06S
RIVERSIDE      SUNNY     83  52  34 CALM      30.06S
PALM SPRINGS   MOSUNNY   91  50  24 CALM      30.02S
EL CENTRO NAS  MOSUNNY   91  51  25 NW7       29.99S
IMPERIAL       SUNNY     92  57  30 W7        29.97S
BLYTHE         SUNNY     87  56  34 VRB3      30.01S
NEEDLES        SUNNY     86  52  30 E3        30.05S
$$

NVZ020-UTZ003-301800-
SOUTHERN NEVADA-UTAH

CITY           SKY/WX    TMP DP  RH WIND       PRES   REMARKS
LAS VEGAS      MOSUNNY   80  49  33 VRB5      30.13S
SALT LAKE CITY PTSUNNY   69  50  50 S16       30.21S
$$

NMZ009-TXZ055-301800-
NEW MEXICO-WEST TEXAS

CITY           SKY/WX    TMP DP  RH WIND       PRES   REMARKS
ALBUQUERQUE    MOSUNNY   64  54  69 S5        30.34F
EL PASO        PTSUNNY   65  58  78 S7        30.28F
$$


........................KEY........................
SKY/WX - SKY CONDITION/WEATHER
TMP    - TEMPERATURE IN FAHRENHEIT
DP     - DEW POINT IN FAHRENHEIT
RH     - RELATIVE HUMIDITY IN PERCENT
WIND   - DIRECTION AND SPEED IN MILES PER HOUR (MPH)
VRB    - VARIABLE WIND DIRECTION
PRES   - MEAN SEA LEVEL PRESSURE IN INCHES OF MERCURY
         F - FALLING PRESSURE   R - RISING PRESSURE
         S - STEADY PRESSURE
VSB    - VISIBILITY IN MILES
HX     - HEAT INDEX IN FAHRENHEIT
WCI    - WIND CHILL INDEX IN FAHRENHEIT
TC     - TEMPERATURE IN CELSIUS WHICH IS ALSO KNOWN AS
         TEMPERATURE IN CENTIGRADE
AFB    - AIR FORCE BASE
         LUKE AFB IS LUKE AIR FORCE BASE
         DAVIS-MONTHAN IS DAVIS-MONTHAN AIR FORCE BASE
NAS    - NAVAL AIR STATION
         EL CENTRO NAS IS EL CENTRO NAVAL AIR STATION
N/A    - NOT AVAILABLE





USA.gov is the U.S. government's official web portal to all federal, state and local government web resources and services.